Location: Bonnesvalyn
(49.1218°N, 3.3177°E)
Time: 13:33:35
(UTC+00:00)

CSL-04 Debris - Pass Details

Date: 09 February 2023
Orbit: 826 x 846 km, 98.8° (Epoch: 22 March)

Event Time Altitude Azimuth Distance (km) Brightness Sun altitude
Exits shadow 18:42:30 20° 129° (SE) 1,815 5.5 -17.7°
Maximum altitude 18:45:52 46° 66° (ENE) 1,113 4.4 -18.3°
Drops below altitude 10° 18:51:00 10° 355° (N) 2,441 6.6 -19.1°
Sets 18:53:26 0° 350° (N) 3,378 7.5 -19.5°
